Weather History for Pascagoula, MS

Change the Weather History Date:

Monday, May 28, 2012

  Actual Average Record
Temperature  
Mean Temperature 80 °F -  
Max Temperature 96 °F 85 °F 97 °F (1978)
Min Temperature 68 °F 70 °F 50 °F (1961)
Cooling Degree Days 16    
Growing Degree Days 30 (Base 50)    
Moisture  
Dew Point 69 °F    
Average Humidity 78    
Maximum Humidity 96    
Minimum Humidity 44    
Precipitation  
Precipitation 0.00 in - - ()
Sea Level Pressure  
Sea Level Pressure 29.89 in    
Wind  
Wind Speed 1 mph (SW)    
Max Wind Speed 7 mph    
Max Gust Speed -    
Visibility 6 miles    
Events      
Averages and records for this station are not official NWS values.
T = Trace of Precipitation, MM = Missing Value Source: NWS Daily Summary

Daily Weather History Graph

Daily Weather History Graph

Search for Another Location

Airport:

Trip Planner

Search our weather history database for the weather conditions in past years. The results will help you decide how hot, cold, wet, or windy it might be!

Date:

Astronomy

May. 28, 2012 Rise Set
Actual Time 5:53 AM CDT 7:49 PM CDT
Civil Twilight 5:26 AM CDT 8:16 PM CDT
Nautical Twilight 4:53 AM CDT 8:49 PM CDT
Astronomical Twilight 4:18 AM CDT 9:24 PM CDT
Moon 12:43 PM CDT (5/28) 12:44 AM CDT (5/28)
Length of Visible Light 14h 50m
Length of Day
13h 56m
Waxing Crescent, 49% of the Moon is Illuminated
May 28
Waxing Crescent
May 28
First Quarter
Jun 4
Full
Jun 11
Last Quarter
Jun 19
New

Hourly Weather History & Observations

Time (CDT) Temp. Heat Index Dew Point Humidity Pressure Visibility Wind Dir Wind Speed Gust Speed Precip Events Conditions
12:53 AM 72.0 °F - 70.0 °F 93% 29.91 in 3.0 mi Calm Calm - N/A   Clear
1:53 AM 71.1 °F - 69.1 °F 93% 29.90 in 2.5 mi Calm Calm - N/A   Clear
2:08 AM 71.6 °F - 69.8 °F 94% 29.89 in 4.0 mi Calm Calm - N/A   Clear
2:46 AM 71.6 °F - 69.8 °F 94% 29.88 in 1.8 mi Calm Calm - N/A   Clear
2:53 AM 72.0 °F - 69.1 °F 91% 29.88 in 1.8 mi Calm Calm - N/A   Clear
2:57 AM 71.6 °F - 69.8 °F 94% 29.88 in 3.0 mi Calm Calm - N/A   Clear
3:19 AM 71.6 °F - 69.8 °F 94% 29.88 in 2.5 mi Calm Calm - N/A   Clear
3:50 AM 69.8 °F - 68.0 °F 94% 29.88 in 4.0 mi Calm Calm - N/A   Clear
3:53 AM 71.1 °F - 68.0 °F 90% 29.88 in 4.0 mi Calm Calm - N/A   Clear
4:44 AM 69.8 °F - 68.0 °F 94% 29.89 in 1.8 mi Calm Calm - N/A   Clear
4:53 AM 69.1 °F - 68.0 °F 96% 29.90 in 1.0 mi Calm Calm - N/A   Clear
5:01 AM 69.8 °F - 68.0 °F 94% 29.89 in 3.0 mi Calm Calm - N/A   Clear
5:20 AM 69.8 °F - 66.2 °F 88% 29.89 in 2.0 mi Calm Calm - N/A   Clear
5:38 AM 69.8 °F - 68.0 °F 94% 29.90 in 3.0 mi Calm Calm - N/A   Clear
5:44 AM 69.8 °F - 68.0 °F 94% 29.90 in 1.8 mi Calm Calm - N/A   Clear
5:53 AM 68.0 °F - 66.9 °F 96% 29.91 in 1.8 mi Calm Calm - N/A   Clear
6:00 AM 69.8 °F - 66.2 °F 88% 29.90 in 2.5 mi Calm Calm - N/A   Clear
6:38 AM 69.8 °F - 68.0 °F 94% 29.91 in 4.0 mi Calm Calm - N/A   Clear
6:53 AM 73.9 °F - 70.0 °F 87% 29.92 in 5.0 mi Calm Calm - N/A   Clear
7:53 AM 79.0 °F - 70.0 °F 74% 29.92 in 9.0 mi ENE 3.5 mph - N/A   Clear
8:53 AM 84.0 °F 87.8 °F 69.1 °F 61% 29.94 in 10.0 mi East 4.6 mph - N/A   Clear
9:53 AM 86.0 °F 89.4 °F 68.0 °F 55% 29.94 in 10.0 mi Variable 3.5 mph - N/A   Clear
10:53 AM 90.0 °F 92.8 °F 66.9 °F 46% 29.93 in 10.0 mi Calm Calm - N/A   Clear
11:53 AM 91.0 °F 93.8 °F 66.0 °F 44% 29.92 in 10.0 mi Calm Calm - N/A   Partly Cloudy
12:53 PM 91.0 °F 94.3 °F 66.9 °F 45% 29.91 in 10.0 mi South 5.8 mph - N/A   Mostly Cloudy
1:53 PM 91.0 °F 94.3 °F 66.9 °F 45% 29.89 in 10.0 mi Variable 3.5 mph - N/A   Mostly Cloudy
2:53 PM 91.9 °F 97.4 °F 70.0 °F 48% 29.87 in 10.0 mi Variable 3.5 mph - N/A   Mostly Cloudy
3:53 PM 91.9 °F 97.4 °F 70.0 °F 48% 29.84 in 10.0 mi WSW 4.6 mph - N/A   Partly Cloudy
4:53 PM 93.9 °F 99.1 °F 69.1 °F 44% 29.84 in 10.0 mi SW 6.9 mph - N/A   Clear
5:53 PM 90.0 °F 96.4 °F 71.1 °F 54% 29.84 in 10.0 mi WSW 6.9 mph - N/A   Mostly Cloudy
6:53 PM 87.1 °F 94.5 °F 73.0 °F 63% 29.84 in 10.0 mi WSW 3.5 mph - N/A   Clear
7:53 PM 84.9 °F 91.4 °F 73.0 °F 67% 29.85 in 10.0 mi WSW 3.5 mph - N/A   Mostly Cloudy
8:53 PM 79.0 °F - 73.0 °F 82% 29.86 in 9.0 mi Calm Calm - N/A   Clear
9:53 PM 77.0 °F - 72.0 °F 84% 29.87 in 8.0 mi Calm Calm - N/A   Clear
10:53 PM 75.0 °F - 72.0 °F 90% 29.87 in 6.0 mi Calm Calm - N/A   Clear
11:53 PM 73.9 °F - 71.1 °F 91% 29.87 in 6.0 mi Calm Calm - N/A   Clear